Showing default

ION SCV-012, 60573

Orbit data source: Space-Track

ION SCV-012, 60573 is a payload satellite owned by D-ORBIT (IT) in SSO that was launched on Fri, 16 Aug 2024 UTC via an FALCON 9 launch vehicle from the Air Force Western Test Range (AFWTR). Payload-class satellites include a variety of spacecraft equipped with specific instruments for various scientific and technological missions. These include communications satellites like Starlink; space stations such as the ISS; scientific satellites like the Hubble; Earth observation satellites from companies like Planet Labs, Umbra, and HawkEye 360; GPS; miniature CubeSats for education and research; and military/defense satellites.

Loading next visibility...
Identifier
60573, 2024-149DK
Orbit
SSO
Country
Flag of ITIT
Related business
Manufacturer
D-ORBIT
Mission
Operational Commercial Technology
Bus & Motor
ION-SC, PM200
Mass
220 kg wet, 150 kg dry
Launch date (UTC)
2024-08-16 (2 years ago)
Launch vehicle
FALCON 9
Launch site
Air Force Western Test Range (AFWTR)
Object type
Payload
Rocket body
Debris
Shape & HBR
Box, 0.3 m
Radar Cross Section
0.240 m², Large (>1 m²)

Expand to show TLE details & history
Last TLE update: 10 hours ago

TLE from 10 hours ago
0 ION SCV-012
1 60573U 24149DK  26265.08397881  .00001034  00000-0  99494-4 0  9993
2 60573  97.6698 337.0315 0004741 110.9645 249.2084 14.95099354114398
Epoch: 2026-09-22T02:00Z
TLE epoch observation values (Epoch: 2026-09-22T02:00:55.769Z)
Latitude
0.00005°
Longitude
-54.15542°
Altitude
586.286 km
Speed
7.566 km/s
True Right ascension
22h 28m 07s
True Declination
0° 00' 00"
Sunlit
Object was in full shadow at epoch
Visualization orbit readout
Latitude
Unknown
Longitude
Unknown
Altitude
Unknown
Speed
Unknown
Apparent Right ascension
Unknown
Apparent Declination
Unknown
Sunlit
N/A
Visualization observer readout
Local Sidereal Time
05:26:56
Azimuth
Unknown
Elevation
Unknown
Doppler factor
Unknown
Orbital elements
Apogee altitude
582.373 km
Perigee altitude
575.776 km
Semi-major axis
6,957.212 km
Eccentricity
0.00047
Inclination
97.6698°
RAAN
337.0315°
Arg. of periapsis
110.9645°
True anomaly
249.15762°
Mean anomaly
249.2084°
Eccentric anomaly
249.18301°
Mean motion
3.74016 °/min
Orbital period
96.25 mins
BSTAR
0.000099494
Loading maneuver chart data...
Computing Atmospheric mass density...
Loading historical data...
Loading historical data...
Loading historical data...
Loading historical data...
Loading historical data...
Loading historical data...
Loading historical data...

Documentation

Showing up to 5 results
|